Simultaneous Nadir Overpasses (SNOs) Predictions

Prediction of SNOs near US between AQUA and NPP Satellite Orbit:

Table of predicted SNOs near US for the next 10.0 days since TLE Epoch: 8/24/2012
Index Date (AQUA) Time (AQUA) AQUA Lat,Lon Date (NPP) Time (NPP) NPP Lat,Lon Distance(km) Time Diff (sec)
1 08/25/2012 06:31:47 40.78, -67.02 08/25/2012 06:30:10 41.15, -69.10 179.07 97
2 08/25/2012 08:08:07 49.89, -88.41 08/25/2012 08:09:00 50.38, -90.85 182.14 53
3 08/25/2012 09:47:00 49.89,-113.13 08/25/2012 09:50:28 50.49,-116.17 226.56 208
4 08/27/2012 19:06:16 49.96, -92.56 08/27/2012 18:59:16 49.62, -94.37 134.76 420
5 08/27/2012 20:45:09 49.96,-117.28 08/27/2012 20:40:44 49.51,-119.69 180.07 265
6 09/02/2012 07:18:59 48.68, -76.55 09/02/2012 07:18:37 49.06, -78.75 166.45 22
7 09/02/2012 08:57:31
